AEROCUBE 7

Last updated on Wed Oct 29 2025 00:03:53 GMT+0000 (Coordinated Universal Time)

1 40966U 15058C 25301.25794747 .00004702 00000+0 38878-3 0 9999 2 40966 64.7630 250.0504 0134557 152.7572 208.0686 14.93322313331292
UTC large
Height (km)
Speed (km/s)
/
Latitude / Longitude
Inclination (degrees)
Orbital Period (minutes)
Azimuth
Elevation
Range (km)
Doppler Factor

Next 0 passes for location: London (51.5072 / 0.1276)

Sorry there are no passes over London.